STARLINK-2065, 47672

Orbit data source: Space-Track

STARLINK-2065, 47672 is a payload satellite owned by SpaceX/Seattle (US) in LEO that was launched on Tue, 16 Feb 2021 UTC via an FALCON 9 launch vehicle from the Air Force Eastern Test Range (AFETR). Payload-class satellites include a variety of spacecraft equipped with specific instruments for various scientific and technological missions. These include communications satellites like Starlink; space stations such as the ISS; scientific satellites like the Hubble; Earth observation satellites from companies like Planet Labs, Umbra, and HawkEye 360; GPS; miniature CubeSats for education and research; and military/defense satellites.

Loading next visibility...
Identifier
47672, 2021-012BE
Orbit
LEO
Country
Flag of USUS
Related business
Manufacturer
SpaceX/Seattle
Mission
Operational Commercial Communications
Bus & Motor
STARLINK, Unknown motor
Mass
260 kg wet, ~248 kg dry
Launch date (UTC)
2021-02-16 (5 years ago)
Launch vehicle
FALCON 9
Launch site
Air Force Eastern Test Range (AFETR)
Object type
Payload
Rocket body
Debris
Shape & HBR
Box + 1 Pan, 10.1 m
Radar Cross Section
13.562 m², Large (>1 m²)

Expand to show TLE details & history
Last TLE update: 21 hours ago

TLE from 21 hours ago
0 STARLINK-2065
1 47672U 21012BE  25346.23720914  .00015090  00000-0  52046-3 0  9995
2 47672  53.1606  70.2065 0001348  68.8874 291.2271 15.30207455267265
Epoch: 2025-12-12T05:41Z
TLE epoch observation values (Epoch: 2025-12-12T05:41:34.869Z)
Latitude
-0.00001°
Longitude
-96.37051°
Altitude
475.758 km
Speed
7.629 km/s
True Right ascension
04h 40m 49s
True Declination
0° 00' 00"
Sunlit
Object was in full shadow at epoch
Visualization orbit readout
Latitude
Unknown
Longitude
Unknown
Altitude
Unknown
Speed
Unknown
Apparent Right ascension
Unknown
Apparent Declination
Unknown
Sunlit
N/A
Visualization observer readout
Local Sidereal Time
01:23:00
Azimuth
Unknown
Elevation
Unknown
Doppler factor
Unknown
Orbital elements
Apogee altitude
476.373 km
Perigee altitude
474.525 km
Semi-major axis
6,853.586 km
Eccentricity
0.00013
Inclination
53.1606°
RAAN
70.2065°
Arg. of periapsis
68.8874°
True anomaly
291.2127°
Mean anomaly
291.2271°
Eccentric anomaly
291.2199°
Mean motion
3.82531 °/min
Orbital period
94.11 mins
BSTAR
0.00052046
Loading maneuver chart data...
Computing Atmospheric mass density...

Documentation

Showing up to 5 results
|